Location: Épaux-Bézu
(49.1076°N, 3.3483°E)
Time: 01:00:04
(UTC+00:00)

Daily predictions for brighter satellites

Satellite Brightness Start Highest point End
(mag) Time Altitude Azimuth Time Altitude Azimuth Time Altitude Azimuth
ACS3 Solar Sail 4.0 02:01:06 10° NE 02:03:45 19° ENE 02:03:45 19° ENE
ADEOS Rocket 4.2 02:33:38 10° NNE 02:38:45 43° ENE 02:38:45 43° ENE
BREEZE-M DEB (TANK) 4.5 02:53:28 80° SE 02:53:28 80° SE 03:13:44 10° ESE
Cosmos 2219 Rocket 3.8 02:55:06 32° ENE 02:55:06 32° ENE 02:58:44 10° NE
USA 267 3.3 03:14:05 10° ENE 03:20:18 70° ESE 03:20:18 70° ESE
Cosmos 1980 Rocket 4.5 03:27:56 13° N 03:27:56 13° N 03:28:54 10° N
H-2A R/B 4.0 03:26:44 10° NNE 03:28:05 19° N 03:28:05 19° N
USA 238 DEB 4.3 03:33:04 43° N 03:33:04 43° N 03:38:36 10° NE
USA 238 4.2 03:33:10 44° N 03:33:10 44° N 03:38:42 10° NE
Cosmos 2278 Rocket 3.8 03:29:48 21° N 03:32:33 31° NE 03:37:33 10° ESE
Cosmos 2333 Rocket 3.3 03:39:31 34° N 03:39:31 34° N 03:42:54 10° NNE
COSMOS 2455 3.3 03:45:06 51° N 03:45:06 51° N 03:49:53 10° NNE
ADEOS II 4.3 03:39:03 10° N 03:39:55 15° N 03:39:55 15° N
Lacrosse 5 rocket 3.9 03:46:58 13° NE 03:46:58 13° NE 03:47:28 10° NE
Cosmos 1153 Rocket 4.5 03:39:36 10° N 03:45:49 80° E 03:52:03 10° SSE
Cosmos 2298 Rocket 4.4 03:46:57 59° NNE 03:46:57 59° NNE 03:51:17 10° NNE
ACS3 Solar Sail 2.1 03:43:17 10° N 03:47:53 52° NNW 03:47:53 52° NNW
BlueWalker 3 4.1 03:53:51 22° ESE 03:53:51 22° ESE 03:55:15 10° ESE
Resurs 1-4 Rocket 4.5 03:48:02 10° N 03:48:14 11° N 03:48:14 11° N
CENTAUR R/B 4.3 03:52:19 22° NNW 03:55:47 30° NNE 04:03:14 10° ENE
Cosmos 2360 Rocket 2.9 03:59:09 41° NNW 03:59:09 41° NNW 04:03:14 10° NNE
Cosmos 2322 Rocket 3.1 03:59:32 36° NNW 03:59:32 36° NNW 04:03:25 10° NNE
USA 234 3.1 03:51:43 10° SE 03:58:13 67° SW 03:58:53 64° WSW
Gbstr 26 Del rocket 4.2 03:59:15 41° SSE 03:59:54 43° SE 04:05:16 10° ENE
SL-16 R/B 3.6 04:06:02 24° NNW 04:06:02 24° NNW 04:09:08 10° NNE
Cosmos 44 Rocket 3.4 04:05:02 70° N 04:05:29 76° NE 04:10:39 10° SE
Cosmos 1943 Rocket 2.8 04:06:17 22° NNW 04:09:47 53° NE 04:15:09 10° SE
Meteor 2-14 Rocket 4.4 04:05:44 10° S 04:11:50 83° E 04:17:57 10° NNE
Okean 1-7 3.7 04:13:10 44° NNE 04:13:10 44° NNE 04:16:06 10° N
H-2A R/B 4.3 04:08:41 10° NNE 04:11:15 39° NNE 04:11:15 39° NNE
NOSS 2-1 (C) 4.3 04:14:58 37° E 04:14:58 37° E 04:17:17 10° NE
ARGOS 3.0 04:09:40 10° NNE 04:15:06 74° WNW 04:16:17 54° SW
PAYLOAD A 4.1 04:10:28 10° NNE 04:15:56 86° ESE 04:20:30 14° SSW
Cosmos 1908 Rocket 4.3 04:11:48 10° N 04:16:10 53° ENE 04:20:29 10° SSE
Cosmos 1140 Rocket 3.4 04:15:55 37° NNW 04:18:00 82° ENE 04:23:06 10° SSE
NOSS 2-1 (D) 4.1 04:19:05 40° E 04:19:05 40° E 04:21:22 10° NE
Timation 2 Rocket 4.1 04:14:49 19° NNW 04:19:47 80° ENE 04:26:13 10° SSE
CZ-2C R/B 2.3 04:15:27 10° N 04:20:26 74° WNW 04:21:33 54° SW
Cosmos 1809 Rocket 4.3 04:17:39 10° SSW 04:23:46 79° W 04:29:54 10° N
ADEOS Rocket 3.6 04:19:22 10° N 04:25:20 41° WNW 04:25:40 41° WNW
NOSS 3-1 (C) 3.0 04:27:25 39° SSW 04:29:13 79° SE 04:34:58 10° NE
Iridium 4 Rocket 3.9 04:27:16 10° N 04:31:32 49° E 04:35:35 10° SSE
SJ 16-02 3.8 04:28:44 10° N 04:31:49 19° NE 04:34:53 10° E
Cosmos 2100 Rocket 3.8 04:25:49 10° NNW 04:31:57 75° W 04:38:05 10° S
Cosmos 2219 Rocket 2.5 04:36:50 41° WNW 04:37:24 43° NW 04:42:50 10° NNE
SL-24 R/B - RUBIN 2 4.1 04:39:22 45° W 04:40:22 52° NW 04:45:09 10° NNE
IRS-1D 4.0 04:35:33 10° NNE 04:40:29 59° ESE 04:45:20 10° S
TIMED 4.3 04:40:17 36° NNW 04:42:00 84° WSW 04:46:15 10° SSE
NOSS 0 Rocket 4.4 04:37:42 10° SSW 04:43:44 62° ESE 04:49:48 10° NE
COSMOS 2428 2.6 04:41:30 10° SSW 04:47:10 85° WNW 04:52:54 10° NNE
USA 59 Rocket -0.9 04:50:47 66° NNW 04:50:47 66° NNW 04:53:37 10° NE
SL-08 RB Rocket 3.9 04:47:38 10° N 04:52:00 45° WNW 04:53:29 33° WSW
Cosmos 1459 Rocket 4.0 04:46:53 10° NNW 04:53:08 59° W 04:59:20 10° S
Cosmos 1864 Rocket 4.4 04:47:48 10° NNW 04:54:04 76° W 05:00:22 10° S
Cosmos 2322 3.6 04:50:01 16° SW 04:54:39 67° WNW 05:00:20 10° NNE
FengYun 1-2 T 4.1 04:51:28 10° NNE 04:57:03 81° WNW 05:02:38 10° SSW
COSMO-SKYMED 1 2.7 04:54:45 10° SSE 04:58:51 71° ENE 05:02:59 10° N
Meteor 2-21 4.4 04:53:28 10° SSW 04:59:28 58° WNW 05:05:28 10° N
Cosmos 407 Rocket 3.3 04:54:49 10° NNW 04:59:57 84° WSW 05:05:03 10° SSE
SKYMED 2 3.4 04:55:49 10° SSE 05:00:09 82° WSW 05:04:32 10° NNW
Cosmos 1727 Rocket 4.3 04:56:18 10° SW 05:02:07 42° WNW 05:08:02 10° N
Cosmos 2228 Rocket 3.8 05:03:28 31° WNW 05:03:28 31° WNW 05:07:13 10° N
USA 267 3.5 04:57:12 10° ENE 05:03:34 57° NNW 05:07:39 23° W
Cosmos 1725 Rocket 3.9 04:57:18 10° NNW 05:03:37 71° W 05:09:53 10° S
Cosmos 1980 4.1 05:01:22 10° SSW 05:06:57 67° ESE 05:12:35 10° NNE
H-2A R/B 4.0 05:07:49 10° NNW 05:08:34 12° NNW 05:08:34 12° NNW
Cosmos 1802 Rocket 4.1 05:05:14 10° NNW 05:11:29 57° W 05:17:35 10° SSW
NOSS 3-1 (A) 3.2 05:08:42 10° SSW 05:13:23 72° SE 05:19:06 10° NE
Cosmos 2233 Rocket 4.0 05:08:30 10° N 05:14:51 83° W 05:21:08 10° S
Cosmos 1328 4.0 05:12:52 10° SW 05:16:18 38° WNW 05:19:45 10° N
Cosmos 2278 Rocket 2.3 05:11:40 11° NW 05:16:56 56° WSW 05:22:26 10° S
Cosmos 1703 Rocket 3.6 05:13:26 10° SSW 05:17:41 51° WNW 05:21:59 10° N
Cosmos 2251 Rocket 3.6 05:13:25 10° NNW 05:18:48 81° ENE 05:24:10 10° SSE
NOSS 2-1 (E) 3.0 05:18:52 25° WSW 05:20:30 48° NW 05:23:28 10° NNE
CZ-3 R/B 4.2 05:16:33 10° SSW 05:20:45 13° S 05:23:45 10° SSE
Cosmos 1939 Rocket 3.6 05:17:54 10° N 05:21:16 29° WNW 05:23:42 15° WSW
Lacrosse 5 rocket 2.5 05:20:39 18° NW 05:21:50 22° N 05:24:32 10° NE
Meteor 2-16 Rocket 4.4 05:16:01 10° SSW 05:22:03 64° WNW 05:28:10 10° N
Cosmos 2173 Rocket 4.5 05:16:54 10° NNW 05:22:16 34° W 05:27:38 10° SSW
Cosmos 2333 Rocket 3.9 05:21:32 14° NW 05:22:56 15° NNW 05:26:17 10° N
Cosmos 2237 Rocket 2.3 05:17:33 10° SSW 05:23:13 81° ESE 05:28:54 10° NNE
USA-17 4.1 05:22:08 23° NW 05:23:56 79° SW 05:27:17 10° SE
SL-08 R/B 4.5 05:19:42 10° NNW 05:25:41 60° W 05:31:44 10° S
Cosmos 2292 Rocket 3.8 05:23:55 10° SSW 05:28:07 61° WNW 05:33:36 10° N
BlueWalker 3 3.3 05:27:40 19° WSW 05:28:52 22° SW 05:31:43 10° S
USA 276 3.9 05:29:39 13° SW 05:30:01 13° SW 05:31:23 10° S
COSMOS 2455 4.2 05:28:15 16° WNW 05:31:02 21° NNW 05:35:32 10° NNE
ACS3 Solar Sail 3.2 05:28:00 10° NNW 05:31:14 15° NW 05:32:02 15° WNW
Meteor 1-24 Rocket 4.0 05:27:22 10° SW 05:32:53 45° WNW 05:38:14 10° N
Helios 1A Rocket 3.2 05:30:19 10° SSW 05:33:22 31° W 05:36:23 10° NW
Cosmos 2242 Rocket 4.3 05:29:55 10° S 05:34:11 57° E 05:38:31 10° NNE
Cosmos 2369 Rocket 3.5 05:29:23 10° NNW 05:34:39 37° NE 05:39:55 10° ESE
CZ-4 R/B 4.0 05:31:03 10° N 05:35:49 51° WNW 05:40:29 10° SW
Cosmos 1782 Rocket 3.8 05:33:47 10° NNW 05:37:59 45° W 05:42:08 10° SSW
Cosmos 2360 Rocket 3.9 05:40:55 12° NW 05:43:07 14° NNW 05:46:10 10° N
Cosmos 2322 Rocket 4.0 05:41:20 11° NW 05:43:32 14° NNW 05:46:18 10° N
Cosmos 2123 Rocket 4.4 05:37:53 10° SW 05:43:38 39° WNW 05:49:24 10° N
Meteor 2-5 Rocket 4.2 05:38:30 10° SW 05:44:05 42° WNW 05:49:39 10° N
NOAA 12 4.3 05:39:57 10° N 05:45:06 51° WNW 05:50:14 10° SW
Cosmos 1420 Rocket 4.0 05:40:05 10° SSW 05:45:21 89° WNW 05:50:42 10° NNE
Gbstr 26 Del rocket 3.7 05:41:19 11° WSW 05:46:11 79° NNW 05:52:35 10° ENE
CENTAUR R/B 3.8 05:40:21 10° NW 05:48:09 57° NE 05:57:14 10° ESE
ARIANE 5 R/B 4.3 05:45:56 10° NNE 05:50:36 37° E 05:55:18 10° SSE
Cosmos 1943 Rocket 3.0 05:48:33 10° NW 05:53:12 28° WSW 05:57:50 10° SSW
Cosmos 1812 2.0 05:54:05 10° N 05:57:02 88° ENE 05:59:57 10° S
CZ-2C R/B 4.1 05:55:18 10° NNW 05:57:41 14° NW 06:00:06 10° W
SMAP 4.0 05:54:54 10° NNE 05:59:29 55° E 06:04:03 10° S
CZ-2D R/B 4.2 05:59:08 10° NNE 06:02:11 42° E 06:05:12 10° S
Cosmos 2346 Rocket 4.5 05:56:06 10° SSW 06:02:13 64° WNW 06:08:18 10° N
NOSS 2-1 (C) 4.2 06:00:54 10° W 06:03:20 19° NW 06:05:36 10° NNE
NOSS 2-1 (D) 4.4 06:05:09 10° WNW 06:07:22 17° NNW 06:09:28 10° NNE
SJ 16-02 1.4 06:06:06 10° NNW 06:10:21 60° WSW 06:14:33 10° S
Iridium 4 Rocket 4.4 06:07:59 10° NW 06:10:51 17° WNW 06:13:37 10° WSW
Aureole 3 Rocket 3.5 06:07:12 10° NNW 06:11:21 56° W 06:17:02 10° S
Okean 1 Rocket 4.0 06:07:25 10° N 06:11:41 52° ENE 06:15:54 10° SSE
CBERS-1 4.0 06:10:10 10° N 06:15:16 68° WNW 06:20:20 10° SSW
